STARLINK-4084, 52657

Orbit data source: Space-Track

STARLINK-4084, 52657 is a payload satellite owned by SpaceX/Seattle (US) in LEO that was launched on Wed, 18 May 2022 UTC via an FALCON 9 launch vehicle from the Air Force Eastern Test Range (AFETR). Payload-class satellites include a variety of spacecraft equipped with specific instruments for various scientific and technological missions. These include communications satellites like Starlink; space stations such as the ISS; scientific satellites like the Hubble; Earth observation satellites from companies like Planet Labs, Umbra, and HawkEye 360; GPS; miniature CubeSats for education and research; and military/defense satellites.

Loading next visibility...
Identifier
52657, 2022-053B
Orbit
LEO
Country
Flag of USUS
Related business
Manufacturer
SpaceX/Seattle
Mission
Operational Commercial Communications
Bus & Motor
STARLINK, Unknown motor
Mass
297 kg wet, ~275 kg dry
Launch date (UTC)
2022-05-18 (4 years ago)
Launch vehicle
FALCON 9
Launch site
Air Force Eastern Test Range (AFETR)
Object type
Payload
Rocket body
Debris
Shape & HBR
Box + 1 Pan, 10.1 m
Radar Cross Section
13.562 m², Large (>1 m²)

Expand to show TLE details & history
Last TLE update: 2 days ago

TLE from 2 days ago
0 STARLINK-4084
1 52657U 22053B   26170.93745403 -.00000336  00000-0 -30176-5 0  9994
2 52657  53.1628  55.3182 0001849  99.8965 260.2236 15.08839002226843
Epoch: 2026-06-19T22:29Z
TLE epoch observation values (Epoch: 2026-06-19T22:29:56.028Z)
Latitude
0.00005°
Longitude
169.67553°
Altitude
540.856 km
Speed
7.593 km/s
True Right ascension
03h 41m 16s
True Declination
0° 00' 00"
Sunlit
Object was in daylight at epoch
Visualization orbit readout
Latitude
Unknown
Longitude
Unknown
Altitude
Unknown
Speed
Unknown
Apparent Right ascension
Unknown
Apparent Declination
Unknown
Sunlit
N/A
Visualization observer readout
Local Sidereal Time
21:30:15
Azimuth
Unknown
Elevation
Unknown
Doppler factor
Unknown
Orbital elements
Apogee altitude
541.279 km
Perigee altitude
538.721 km
Semi-major axis
6,918.137 km
Eccentricity
0.00018
Inclination
53.1628°
RAAN
55.3182°
Arg. of periapsis
99.8965°
True anomaly
260.20272°
Mean anomaly
260.2236°
Eccentric anomaly
260.21316°
Mean motion
3.77189 °/min
Orbital period
95.44 mins
BSTAR
-0.0000030176
Loading maneuver chart data...
Computing Atmospheric mass density...
Loading historical data...
Loading historical data...
Loading historical data...
Loading historical data...
Loading historical data...
Loading historical data...
Loading historical data...

Documentation

Showing up to 5 results
|